Air Quality Table

TIMESTAMP NO2 SO2 PM10 PM2.5 CO TEMP HUM AIRPRES WS WD NO
2022-01-21 01:00 62.05 µg/m3 0.65 µg/m3 22.68 µg/m3 12.14 µg/m3 0.35 mg/m3 12.13 °C 74.49 % 1,021.53 mbar 2.06 m/s 200.17 Deg 15.03 µg/m3
2022-01-20 17:00 39.25 µg/m3 0.88 µg/m3 13.42 µg/m3 5.71 µg/m3 0.27 mg/m3 13.92 °C 68.2 % 1,023.18 mbar 2.5 m/s 237.06 Deg 36.01 µg/m3
2022-01-20 09:00 66.57 µg/m3 1.09 µg/m3 17.64 µg/m3 9.19 µg/m3 0.43 mg/m3 10.93 °C 89.75 % 1,025.15 mbar 1.67 m/s 199.11 Deg 57.97 µg/m3
2022-01-20 01:00 57.86 µg/m3 0.57 µg/m3 13.88 µg/m3 7.15 µg/m3 0.36 mg/m3 12.42 °C 85.12 % 1,027.26 mbar 0.95 m/s 204.83 Deg 17.58 µg/m3
2022-01-19 17:00 37.81 µg/m3 1.06 µg/m3 14.83 µg/m3 6.09 µg/m3 0.34 mg/m3 15.14 °C 60.51 % 1,028.26 mbar 0.84 m/s 217.76 Deg 21.63 µg/m3
2022-01-19 09:00 71.19 µg/m3 1.43 µg/m3 20.07 µg/m3 10.74 µg/m3 0.47 mg/m3 11.58 °C 79.16 % 1,028.30 mbar 1.39 m/s 209.86 Deg 65.05 µg/m3
2022-01-19 01:00 60.9 µg/m3 0.64 µg/m3 22.17 µg/m3 12.38 µg/m3 0.5 mg/m3 11.65 °C 75.84 % 1,028.62 mbar 1.78 m/s 229.63 Deg 23.24 µg/m3
2022-01-18 17:00 9.66 µg/m3 0.22 µg/m3 11.26 µg/m3 4.57 µg/m3 0.27 mg/m3 14.35 °C 62.47 % 1,027.16 mbar 1.79 m/s 315.08 Deg 3.6 µg/m3
2022-01-18 09:00 13.16 µg/m3 0.15 µg/m3 10.76 µg/m3 4.47 µg/m3 0.25 mg/m3 12.73 °C 73.6 % 1,024.88 mbar 1.92 m/s 271.69 Deg 1.57 µg/m3
2022-01-18 01:00 8.31 µg/m3 0.17 µg/m3 10.39 µg/m3 4.37 µg/m3 0.26 mg/m3 13.26 °C 74.96 % 1,023.91 mbar 2.85 m/s 257.19 Deg 0.66 µg/m3
2022-01-17 17:00 14.58 µg/m3 0.27 µg/m3 10.79 µg/m3 4.26 µg/m3 0.26 mg/m3 14.2 °C 69.44 % 1,023.88 mbar 4.29 m/s 265.39 Deg 3.2 µg/m3
2022-01-17 09:00 62.96 µg/m3 0.75 µg/m3 14.94 µg/m3 7.75 µg/m3 0.48 mg/m3 11.43 °C 87.23 % 1,024.45 mbar 2 m/s 197.44 Deg 27.93 µg/m3
2022-01-17 01:00 61.49 µg/m3 0.81 µg/m3 21.06 µg/m3 12.3 µg/m3 0.57 mg/m3 11.81 °C 88.24 % 1,024.44 mbar 1.77 m/s 203 Deg 32.45 µg/m3
2022-01-16 17:00 29.57 µg/m3 1.05 µg/m3 14.76 µg/m3 7.1 µg/m3 0.4 mg/m3 14.31 °C 74.96 % 1,023.15 mbar 0.66 m/s 138.5 Deg 16.15 µg/m3
2022-01-16 09:00 50.62 µg/m3 0.82 µg/m3 15.34 µg/m3 8.17 µg/m3 0.4 mg/m3 8.36 °C 90.77 % 1,021.37 mbar 2.34 m/s 200.79 Deg 45.35 µg/m3
2022-01-16 01:00 64.76 µg/m3 0.76 µg/m3 22.67 µg/m3 13.24 µg/m3 0.63 mg/m3 10.6 °C 80.88 % 1,020.16 mbar 1.82 m/s 211.1 Deg 32.31 µg/m3
2022-01-15 17:00 16.04 µg/m3 0.51 µg/m3 11.38 µg/m3 4.59 µg/m3 0.32 mg/m3 13.27 °C 64.84 % 1,019.99 mbar 1.82 m/s 309.33 Deg 6.5 µg/m3
2022-01-15 09:00 76.63 µg/m3 1.35 µg/m3 18.15 µg/m3 9.29 µg/m3 0.39 mg/m3 7.9 °C 81.89 % 1,021.31 mbar 2.54 m/s 201.43 Deg 84.18 µg/m3
2022-01-15 01:00 41.64 µg/m3 0.41 µg/m3 14.89 µg/m3 7.24 µg/m3 0.33 mg/m3 10.91 °C 64.24 % 1,023.85 mbar 1.73 m/s 215.61 Deg 8.3 µg/m3
2022-01-14 17:00 15.33 µg/m3 0.29 µg/m3 13.84 µg/m3 5.6 µg/m3 0.25 mg/m3 12.86 °C 61.59 % 1,024.62 mbar 2.01 m/s 236.76 Deg 4.08 µg/m3

It is to be noted that the data is provisional and subject to quality assurance procedures. For validated data kindly refer your request to contact.air@era.org.mt